FREGAT DEB, 47332

Orbit data source: Space-Track

FREGAT DEB, 47332 is space debris in LEO originally from a launch on Mon, 18 Jul 2011 UTC launched from the Tyuratam Missile And Space Complex (TTMTR). Debris objects in space refer to the collection of defunct objects orbiting the Earth. Examples of debris include non-operational satellites, rocket bodies, and fragments generated from explosions, collisions, or faulty payload assembly.

Loading next visibility...
Identifier
47332, 2011-037NP
Orbit
LEO
Country
Flag of CISCIS
Related business
Manufacturer
Lavochkin
Mission
Spacecraft
Bus & Motor
Unknown
Mass
Unknown
Launch date (UTC)
2011-07-18 (15 years ago)
Launch vehicle
Unknown
Launch site
Tyuratam Missile And Space Complex (TTMTR)
Object type
Payload
Rocket body
Debris
Shape & HBR
Unknown shape, 0.1 m
Radar Cross Section
Small (<0.1 m²)

Expand to show TLE details & history
Last TLE update: 4 days ago

TLE from 4 days ago
0 FREGAT DEB
1 47332U 11037NP  26123.16042314  .00000928  00000-0  22432-3 0  9991
2 47332  51.4257 301.3357 1886426 231.1845 110.5168 11.29651774218877
Epoch: 2026-05-03T03:51Z
TLE epoch observation values (Epoch: 2026-05-03T03:51:00.559Z)
Latitude
0.00006°
Longitude
22.51546°
Altitude
2,801.176 km
Speed
6.274 km/s
True Right ascension
20h 05m 20s
True Declination
0° 00' 00"
Sunlit
Object was in daylight at epoch
Visualization orbit readout
Latitude
Unknown
Longitude
Unknown
Altitude
Unknown
Speed
Unknown
Apparent Right ascension
Unknown
Apparent Declination
Unknown
Sunlit
N/A
Visualization observer readout
Local Sidereal Time
03:52:28
Azimuth
Unknown
Elevation
Unknown
Doppler factor
Unknown
Orbital elements
Apogee altitude
3,595.362 km
Perigee altitude
429.689 km
Semi-major axis
8,390.662 km
Eccentricity
0.18864
Inclination
51.4257°
RAAN
301.3357°
Arg. of periapsis
231.1845°
True anomaly
128.89681°
Mean anomaly
110.5168°
Eccentric anomaly
119.88774°
Mean motion
2.8239 °/min
Orbital period
127.48 mins
BSTAR
0.00022432
Loading maneuver chart data...
Computing Atmospheric mass density...
Loading historical data...
Loading historical data...
Loading historical data...
Loading historical data...
Loading historical data...
Loading historical data...
Loading historical data...

Documentation

Showing up to 5 results
|